17:05
Airports
History
Links
Donate
Help keep this website running!
PayPal
Bitcoin
This page is community maintained. The information is intended for PC simulator navigation or reference.
Always use approved charts for navigation.
EDPQ
Schmidgaden
Schmidgaden (EDPQ)
Schmidgaden, Bayern, Germany (92546)
(U)
Lat/Lng:49° 25' 50.97" N / 12° 5' 53.99" E
49.430824 / 12.09833
Elevation:1247'ft / 380mMSL
ID / ICAO:EDPQ
Runways:1
Longest:12-30
Asphalt 515m / 1,690ft
Nearby Weather16:56 GMT 2017-12-14
Nearby weather at ETIH, HOHENFELS AAF located 18.9 nautical miles from EDPQ
Altimeter: 29.49
Visibility: 6.2 statute miles
Wind: 5 knots (from 200°)
Temp: 3°c / 37°f
Humidity: 86.7%

METAR: ETIH 141656Z AUTO 20005KT 9999 FEW049 03/01 A2949 RMK AO2 SLP004 T00250006 $

(Powered by phpweather)
Nearby VORs <50NM
Nearby NDBs
Runway 12 / 30
Dimensions:515 x 10.1m 1690' x 33'ft
Surface:Asphalt
Runway 12 [A]Runway 30 [B]
Heading:119°TH 299°TH
Lat:
Lng:
49° 25' 55.05"N
12° 5' 42.66"E
49° 25' 46.88"N
12° 6' 5.31"E
User Notes and Comments
49° 25' 50.97" N / 12° 5' 53.99" E
Distance To
Airport ID:
Nearby Airports
(U) Nittenau Bruck 16.9 NM
EDNM SSE 148°
(U) Weiden 17.2 NM
EDQW N
(C) HOHENFELS AAF 18.9 NM
ETIH ( WX ) SW 218°
(C) GRAFENWOHR AAF 19.8 NM
ETIC ( WX ) NNW 339°
(U) VILSECK AAF 20.4 NM
ETOI NW 313°
(U) Rosenthal Field Ploessen 32.9 NM
EDQP NNW 335°
(C) Tachov 37.2 NM
LKTD NE 47°
VFR Chart
Flight Planning at SkyVector.com